Time,TemperatureF,DewpointF,PressureIn,WindDirection,WindDirectionDegrees,WindSpeedMPH,WindSpeedGustMPH,Humidity,HourlyPrecipIn,Conditions,Clouds,dailyrainin,SolarRadiationWatts/m^2,SoftwareType,DateUTC
2013-10-27 00:01:00,70.9,68.0,30.07,West,264,5.0,-999.0,91,-99.99,,,0.00,0,weatherlink.com 1.10,2013-10-26 22:01:00,
2013-10-27 00:17:00,70.9,68.0,30.08,West,260,5.0,-999.0,91,-99.99,,,0.00,0,weatherlink.com 1.10,2013-10-26 22:17:00,
2013-10-27 00:32:00,70.7,68.0,30.08,WSW,241,1.0,-999.0,91,-99.99,,,0.00,0,weatherlink.com 1.10,2013-10-26 22:32:00,
2013-10-27 00:47:00,70.8,68.0,30.08,West,275,11.0,-999.0,91,-99.99,,,0.00,0,weatherlink.com 1.10,2013-10-26 22:47:00,
2013-10-27 01:02:00,70.6,68.0,30.08,West,273,6.0,-999.0,91,-99.99,,,0.00,0,weatherlink.com 1.10,2013-10-26 23:02:00,
2013-10-27 01:18:00,70.7,68.0,30.08,West,261,7.0,-999.0,91,-99.99,,,0.00,0,weatherlink.com 1.10,2013-10-26 23:18:00,
2013-10-27 01:32:00,70.7,68.0,30.08,West,273,6.0,-999.0,91,-99.99,,,0.00,0,weatherlink.com 1.10,2013-10-26 23:32:00,
2013-10-27 01:47:00,70.6,68.0,30.08,WNW,282,18.0,-999.0,92,-99.99,,,0.00,0,weatherlink.com 1.10,2013-10-26 23:47:00,
2013-10-27 02:03:00,70.6,68.0,30.08,West,275,8.0,-999.0,91,-99.99,,,0.00,0,weatherlink.com 1.10,2013-10-27 00:03:00,
2013-10-27 02:18:00,70.6,68.0,30.08,West,278,8.0,-999.0,91,-99.99,,,0.00,0,weatherlink.com 1.10,2013-10-27 00:18:00,
2013-10-27 02:34:00,70.5,68.0,30.08,West,271,14.0,-999.0,91,-99.99,,,0.00,0,weatherlink.com 1.10,2013-10-27 00:34:00,
2013-10-27 02:48:00,70.4,68.0,30.08,West,263,12.0,-999.0,92,-99.99,,,0.00,0,weatherlink.com 1.10,2013-10-27 00:48:00,
2013-10-27 02:03:00,70.3,68.0,30.08,West,262,13.0,-999.0,91,-99.99,,,0.00,0,weatherlink.com 1.10,2013-10-27 01:03:00,
2013-10-27 02:19:00,70.1,67.0,30.08,West,273,5.0,-999.0,91,-99.99,,,0.00,0,weatherlink.com 1.10,2013-10-27 01:19:00,
2013-10-27 02:34:00,69.9,67.0,30.08,West,278,6.0,-999.0,91,-99.99,,,0.00,0,weatherlink.com 1.10,2013-10-27 01:34:00,
2013-10-27 02:49:00,70.1,68.0,30.08,WNW,292,15.0,-999.0,92,-99.99,,,0.00,0,weatherlink.com 1.10,2013-10-27 01:49:00,
2013-10-27 03:04:00,69.8,67.0,30.08,West,281,9.0,-999.0,91,-99.99,,,0.00,0,weatherlink.com 1.10,2013-10-27 02:04:00,
2013-10-27 03:20:00,69.7,67.0,30.09,West,281,10.0,-999.0,91,-99.99,,,0.00,0,weatherlink.com 1.10,2013-10-27 02:20:00,
2013-10-27 03:35:00,69.9,68.0,30.08,WNW,283,9.0,-999.0,92,-99.99,,,0.00,0,weatherlink.com 1.10,2013-10-27 02:35:00,
2013-10-27 03:50:00,70.0,67.0,30.08,West,262,12.0,-999.0,91,-99.99,,,0.00,0,weatherlink.com 1.10,2013-10-27 02:50:00,
2013-10-27 04:05:00,69.8,67.0,30.08,West,271,6.0,-999.0,91,-99.99,,,0.00,0,weatherlink.com 1.10,2013-10-27 03:05:00,
2013-10-27 04:20:00,69.9,67.0,30.08,West,271,10.0,-999.0,91,-99.99,,,0.00,0,weatherlink.com 1.10,2013-10-27 03:20:00,
2013-10-27 04:36:00,69.9,67.0,30.09,WNW,291,7.0,-999.0,91,-99.99,,,0.00,0,weatherlink.com 1.10,2013-10-27 03:36:00,
2013-10-27 04:50:00,69.8,67.0,30.09,WNW,301,5.0,-999.0,91,-99.99,,,0.00,0,weatherlink.com 1.10,2013-10-27 03:50:00,
2013-10-27 05:06:00,69.6,67.0,30.09,NW,315,5.0,-999.0,91,-99.99,,,0.00,0,weatherlink.com 1.10,2013-10-27 04:06:00,
2013-10-27 05:21:00,69.6,67.0,30.09,WNW,286,5.0,-999.0,91,-99.99,,,0.00,0,weatherlink.com 1.10,2013-10-27 04:21:00,
2013-10-27 05:37:00,69.5,67.0,30.09,WNW,292,4.0,-999.0,91,-99.99,,,0.00,0,weatherlink.com 1.10,2013-10-27 04:37:00,
2013-10-27 05:51:00,69.5,67.0,30.09,WNW,292,3.0,-999.0,91,-99.99,,,0.00,0,weatherlink.com 1.10,2013-10-27 04:51:00,
2013-10-27 06:07:00,69.5,67.0,30.10,West,280,9.0,-999.0,91,-99.99,,,0.00,0,weatherlink.com 1.10,2013-10-27 05:07:00,
2013-10-27 06:22:00,69.5,67.0,30.11,WNW,298,5.0,-999.0,91,-99.99,,,0.00,0,weatherlink.com 1.10,2013-10-27 05:22:00,
2013-10-27 06:38:00,69.5,67.0,30.11,West,279,7.0,-999.0,91,-99.99,,,0.00,0,weatherlink.com 1.10,2013-10-27 05:38:00,
2013-10-27 06:52:00,69.5,67.0,30.11,WNW,282,6.0,-999.0,91,-99.99,,,0.00,0,weatherlink.com 1.10,2013-10-27 05:52:00,
2013-10-27 07:07:00,69.6,67.0,30.12,WNW,289,5.0,-999.0,91,-99.99,,,0.00,0,weatherlink.com 1.10,2013-10-27 06:07:00,
2013-10-27 07:23:00,69.6,67.0,30.13,WNW,303,7.0,-999.0,91,-99.99,,,0.00,7,weatherlink.com 1.10,2013-10-27 06:23:00,
2013-10-27 07:37:00,69.7,67.0,30.13,NW,309,4.0,-999.0,91,-99.99,,,0.00,21,weatherlink.com 1.10,2013-10-27 06:37:00,
2013-10-27 07:53:00,69.7,67.0,30.14,WNW,298,2.0,-999.0,91,-99.99,,,0.00,33,weatherlink.com 1.10,2013-10-27 06:53:00,
2013-10-27 08:09:00,69.6,67.0,30.15,WNW,301,3.0,-999.0,91,-99.99,,,0.00,44,weatherlink.com 1.10,2013-10-27 07:09:00,
2013-10-27 08:23:00,69.5,67.0,30.15,WNW,302,0.0,-999.0,91,-99.99,,,0.00,54,weatherlink.com 1.10,2013-10-27 07:23:00,
2013-10-27 08:39:00,69.6,67.0,30.16,WNW,302,1.0,-999.0,91,-99.99,,,0.00,142,weatherlink.com 1.10,2013-10-27 07:39:00,
2013-10-27 08:54:00,69.8,67.0,30.16,WNW,301,0.0,-999.0,91,-99.99,,,0.00,200,weatherlink.com 1.10,2013-10-27 07:54:00,
2013-10-27 09:09:00,70.0,67.0,30.16,WNW,302,0.0,-999.0,91,-99.99,,,0.00,241,weatherlink.com 1.10,2013-10-27 08:09:00,
2013-10-27 09:24:00,70.5,68.0,30.16,NW,322,3.0,-999.0,90,-99.99,,,0.00,301,weatherlink.com 1.10,2013-10-27 08:24:00,
2013-10-27 09:40:00,72.6,68.0,30.17,NW,319,0.0,-999.0,85,-99.99,,,0.00,343,weatherlink.com 1.10,2013-10-27 08:40:00,
2013-10-27 09:55:00,75.0,69.0,30.17,NW,311,5.0,-999.0,81,-99.99,,,0.00,359,weatherlink.com 1.10,2013-10-27 08:55:00,
2013-10-27 10:10:00,76.9,68.0,30.17,NW,306,3.0,-999.0,75,-99.99,,,0.00,399,weatherlink.com 1.10,2013-10-27 09:10:00,
2013-10-27 10:25:00,77.9,68.0,30.18,WNW,299,4.0,-999.0,71,-99.99,,,0.00,422,weatherlink.com 1.10,2013-10-27 09:25:00,
2013-10-27 10:41:00,80.1,70.0,30.17,WNW,298,0.0,-999.0,70,-99.99,,,0.00,473,weatherlink.com 1.10,2013-10-27 09:41:00,
2013-10-27 10:56:00,80.1,68.0,30.18,WNW,298,4.0,-999.0,67,-99.99,,,0.00,457,weatherlink.com 1.10,2013-10-27 09:56:00,
2013-10-27 11:11:00,80.8,69.0,30.18,WNW,297,0.0,-999.0,67,-99.99,,,0.00,513,weatherlink.com 1.10,2013-10-27 10:11:00,
2013-10-27 11:26:00,79.9,68.0,30.18,WNW,290,2.0,-999.0,67,-99.99,,,0.00,512,weatherlink.com 1.10,2013-10-27 10:26:00,
2013-10-27 11:42:00,80.3,68.0,30.18,West,259,3.0,-999.0,66,-99.99,,,0.00,571,weatherlink.com 1.10,2013-10-27 10:42:00,
2013-10-27 11:56:00,81.0,70.0,30.18,West,270,3.0,-999.0,70,-99.99,,,0.00,554,weatherlink.com 1.10,2013-10-27 10:56:00,
2013-10-27 12:12:00,80.5,71.0,30.18,West,271,9.0,-999.0,72,-99.99,,,0.00,566,weatherlink.com 1.10,2013-10-27 11:12:00,
2013-10-27 12:27:00,80.3,70.0,30.17,WNW,283,12.0,-999.0,71,-99.99,,,0.00,563,weatherlink.com 1.10,2013-10-27 11:27:00,
2013-10-27 12:42:00,78.7,70.0,30.17,West,273,7.0,-999.0,75,-99.99,,,0.00,566,weatherlink.com 1.10,2013-10-27 11:42:00,
2013-10-27 12:57:00,78.3,70.0,30.17,West,260,5.0,-999.0,76,-99.99,,,0.00,552,weatherlink.com 1.10,2013-10-27 11:57:00,
2013-10-27 13:12:00,77.5,70.0,30.16,West,261,7.0,-999.0,78,-99.99,,,0.00,545,weatherlink.com 1.10,2013-10-27 12:12:00,
2013-10-27 13:28:00,77.4,70.0,30.16,WSW,248,6.0,-999.0,78,-99.99,,,0.00,536,weatherlink.com 1.10,2013-10-27 12:28:00,
2013-10-27 13:43:00,77.7,70.0,30.16,West,261,10.0,-999.0,77,-99.99,,,0.00,522,weatherlink.com 1.10,2013-10-27 12:43:00,
2013-10-27 13:58:00,76.7,70.0,30.16,WSW,249,7.0,-999.0,80,-99.99,,,0.00,563,weatherlink.com 1.10,2013-10-27 12:58:00,
2013-10-27 14:13:00,76.2,70.0,30.16,West,266,2.0,-999.0,82,-99.99,,,0.00,304,weatherlink.com 1.10,2013-10-27 13:13:00,
2013-10-27 14:28:00,75.3,70.0,30.16,WSW,246,9.0,-999.0,82,-99.99,,,0.00,482,weatherlink.com 1.10,2013-10-27 13:28:00,
2013-10-27 14:44:00,75.4,70.0,30.15,West,270,6.0,-999.0,82,-99.99,,,0.00,425,weatherlink.com 1.10,2013-10-27 13:44:00,
2013-10-27 14:59:00,75.3,70.0,30.14,West,270,4.0,-999.0,83,-99.99,,,0.00,406,weatherlink.com 1.10,2013-10-27 13:59:00,
2013-10-27 15:14:00,74.9,69.0,30.15,WSW,254,7.0,-999.0,83,-99.99,,,0.00,225,weatherlink.com 1.10,2013-10-27 14:14:00,
2013-10-27 15:29:00,74.2,69.0,30.15,West,265,6.0,-999.0,84,-99.99,,,0.00,123,weatherlink.com 1.10,2013-10-27 14:29:00,
2013-10-27 15:44:00,73.9,70.0,30.16,West,278,6.0,-999.0,86,-99.99,,,0.00,318,weatherlink.com 1.10,2013-10-27 14:44:00,
2013-10-27 16:00:00,73.8,69.0,30.15,West,275,10.0,-999.0,85,-99.99,,,0.00,114,weatherlink.com 1.10,2013-10-27 15:00:00,
2013-10-27 16:15:00,73.6,69.0,30.15,West,259,5.0,-999.0,85,-99.99,,,0.00,185,weatherlink.com 1.10,2013-10-27 15:15:00,
2013-10-27 16:30:00,73.3,69.0,30.15,WSW,257,10.0,-999.0,85,-99.99,,,0.00,158,weatherlink.com 1.10,2013-10-27 15:30:00,
2013-10-27 16:45:00,73.2,69.0,30.15,WSW,251,6.0,-999.0,85,-99.99,,,0.00,121,weatherlink.com 1.10,2013-10-27 15:45:00,
2013-10-27 17:00:00,73.0,68.0,30.15,West,262,5.0,-999.0,85,-99.99,,,0.00,72,weatherlink.com 1.10,2013-10-27 16:00:00,
2013-10-27 17:16:00,72.8,68.0,30.15,West,271,4.0,-999.0,85,-99.99,,,0.00,40,weatherlink.com 1.10,2013-10-27 16:16:00,
2013-10-27 17:31:00,72.5,68.0,30.15,West,259,3.0,-999.0,86,-99.99,,,0.00,23,weatherlink.com 1.10,2013-10-27 16:31:00,
2013-10-27 17:45:00,72.1,68.0,30.15,WSW,250,2.0,-999.0,86,-99.99,,,0.00,9,weatherlink.com 1.10,2013-10-27 16:45:00,
2013-10-27 18:01:00,71.9,68.0,30.15,WSW,250,0.0,-999.0,86,-99.99,,,0.00,0,weatherlink.com 1.10,2013-10-27 17:01:00,
2013-10-27 18:16:00,71.6,67.0,30.16,WSW,250,0.0,-999.0,86,-99.99,,,0.00,0,weatherlink.com 1.10,2013-10-27 17:16:00,
2013-10-27 18:32:00,71.4,67.0,30.16,WSW,250,0.0,-999.0,86,-99.99,,,0.00,0,weatherlink.com 1.10,2013-10-27 17:32:00,
2013-10-27 18:47:00,71.1,67.0,30.15,WSW,244,0.0,-999.0,87,-99.99,,,0.00,0,weatherlink.com 1.10,2013-10-27 17:47:00,
2013-10-27 19:01:00,70.8,67.0,30.15,SSW,207,0.0,-999.0,87,-99.99,,,0.00,0,weatherlink.com 1.10,2013-10-27 18:01:00,
2013-10-27 19:17:00,70.6,67.0,30.16,SSW,202,0.0,-999.0,87,-99.99,,,0.00,0,weatherlink.com 1.10,2013-10-27 18:17:00,
2013-10-27 19:32:00,70.4,67.0,30.16,SSW,202,0.0,-999.0,88,-99.99,,,0.00,0,weatherlink.com 1.10,2013-10-27 18:32:00,
2013-10-27 19:48:00,70.3,67.0,30.16,SSW,202,0.0,-999.0,88,-99.99,,,0.00,0,weatherlink.com 1.10,2013-10-27 18:48:00,
2013-10-27 20:03:00,70.2,67.0,30.16,SSW,205,3.0,-999.0,88,-99.99,,,0.00,0,weatherlink.com 1.10,2013-10-27 19:03:00,
2013-10-27 20:17:00,70.1,67.0,30.17,SSW,205,1.0,-999.0,88,-99.99,,,0.00,0,weatherlink.com 1.10,2013-10-27 19:17:00,
2013-10-27 20:33:00,70.2,67.0,30.17,SSW,206,0.0,-999.0,89,-99.99,,,0.00,0,weatherlink.com 1.10,2013-10-27 19:33:00,
2013-10-27 20:48:00,70.3,67.0,30.17,SSW,206,2.0,-999.0,89,-99.99,,,0.00,0,weatherlink.com 1.10,2013-10-27 19:48:00,
2013-10-27 21:03:00,70.2,67.0,30.17,SW,217,2.0,-999.0,89,-99.99,,,0.00,0,weatherlink.com 1.10,2013-10-27 20:03:00,
2013-10-27 21:19:00,70.1,67.0,30.17,SW,218,2.0,-999.0,89,-99.99,,,0.00,0,weatherlink.com 1.10,2013-10-27 20:19:00,
2013-10-27 21:33:00,69.9,67.0,30.17,SW,218,3.0,-999.0,89,-99.99,,,0.01,0,weatherlink.com 1.10,2013-10-27 20:33:00,
2013-10-27 21:48:00,69.8,67.0,30.17,SW,218,1.0,-999.0,90,-99.99,,,0.01,0,weatherlink.com 1.10,2013-10-27 20:48:00,
2013-10-27 22:04:00,69.7,67.0,30.17,SW,230,0.0,-999.0,90,-99.99,,,0.01,0,weatherlink.com 1.10,2013-10-27 21:04:00,
2013-10-27 22:19:00,69.4,66.0,30.17,SW,233,3.0,-999.0,90,-99.99,,,0.01,0,weatherlink.com 1.10,2013-10-27 21:19:00,
2013-10-27 22:35:00,69.4,66.0,30.17,SW,236,3.0,-999.0,90,-99.99,,,0.01,0,weatherlink.com 1.10,2013-10-27 21:35:00,
2013-10-27 22:50:00,69.6,67.0,30.16,SW,232,0.0,-999.0,90,-99.99,,,0.01,0,weatherlink.com 1.10,2013-10-27 21:50:00,
2013-10-27 23:05:00,69.6,67.0,30.16,SW,232,2.0,-999.0,90,-99.99,,,0.01,0,weatherlink.com 1.10,2013-10-27 22:05:00,
2013-10-27 23:20:00,69.6,67.0,30.16,SW,232,0.0,-999.0,90,-99.99,,,0.01,0,weatherlink.com 1.10,2013-10-27 22:20:00,
2013-10-27 23:35:00,69.5,67.0,30.16,SW,233,2.0,-999.0,90,-99.99,,,0.01,0,weatherlink.com 1.10,2013-10-27 22:35:00,
2013-10-27 23:51:00,69.5,67.0,30.15,SW,234,3.0,-999.0,91,-99.99,,,0.01,0,weatherlink.com 1.10,2013-10-27 22:51:00,